AirNav   Air Wisconsin pilot careers
 
 1432 users online  

M49 Jolly Fisherman Seaplane Base
Waubun, Minnesota, USA

GOING TO WAUBUN?


FAA INFORMATION EFFECTIVE 03 JANUARY 2019

Location

FAA Identifier: M49
Lat/Long: 47-08-34.8540N / 095-31-44.1060W
47-08.580900N / 095-31.735100W
47.1430150 / -95.5289183
(estimated)
Elevation: 1499 ft. / 457 m (estimated)
Variation: 05E (1985)
From city: 17 miles E of WAUBUN, MN
Time zone: UTC -6 (UTC -5 during Daylight Saving Time)
Zip code: 56589

Seaplane Base Operations

Seaplane Base use: Open to the public
Activation date: 03/1983
Control tower: no
ARTCC: MINNEAPOLIS CENTER
FSS: PRINCETON FLIGHT SERVICE STATION
NOTAMs facility: PNM (NOTAM-D service available)
Attendance: MAY-OCT DAYLIGHT HOURS, NOV-APR/UNATNDD/
Wind indicator: yes
Segmented circle: no

Seaplane Base Communications

CTAF: 122.9
WX AWOS-3PT at 3N8 (18 nm NW): 121.125 (218-936-2507)

Nearby radio navigation aids

VOR radial/distance  VOR name  Freq  Var
PKDr304/23.8PARK RAPIDS VOR/DME110.6004E
DTLr033/24.0DETROIT LAKES VOR/DME111.2005E
IDJr227/32.9LAKE BEMIDJI VOR/DME110.0001E

 
NDB name  Hdg/Dist  Freq  Var  ID
FOSSTON157/28.522403EFSE ..-. ... .

Seaplane Base Services

Parking: tiedowns
Airframe service: NONE
Powerplant service: NONE
Bottled oxygen: NONE
Bulk oxygen: NONE

Runway Information

Runway 8W/26W

Dimensions: 5000 x 1800 ft. / 1524 x 549 m
Surface: water
RUNWAY 8W  RUNWAY 26W
Traffic pattern: leftleft

Seaplane Base Ownership and Management from official FAA records

Ownership: Privately-owned
Owner: ANNE BUELOW
39126 JOLLY FISHERMAN ROAD
WAUBUN, MN 56589
Phone 701-388-8042
Manager: ANNE BUELOW
39126 JOLLY FISHERMAN ROAD
WAUBUN, MN 56589
Phone 701-388-8042

Seaplane Base Operational Statistics

Aircraft operations: 40/year *
75% local general aviation
25% transient general aviation
* for 12-month period ending 31 August 2018

Instrument Procedures

There are no published instrument procedures at M49.

Some nearby airports with instrument procedures:

3N8 - Mahnomen County Airport (18 nm NW)
KPKD - Park Rapids Municipal Airport-Konshok Field (24 nm SE)
KDTL - Detroit Lakes Airport-Wething Field (24 nm SW)
KFSE - Fosston Municipal Airport-Anderson Field (29 nm N)
16D - Perham Municipal Airport (32 nm S)
 
Loc | Ops | Rwys | IFR | FBO | Links
Com | Nav | Svcs | Stats | Notes
Area around M49 (Jolly Fisherman Seaplane Base)
 
Road maps at: MapQuest Bing Google
 
Aerial photo
WARNING: Photo may not be current or correct
Aerial photo of M49 (Jolly Fisherman Seaplane Base)
Photo by Pete Peterson
Taken in September 2007

Do you have a better or more recent aerial photo of Jolly Fisherman Seaplane Base that you would like to share? If so, please send us your photo.

 
Sectional chart

 
Airport distance calculator
Flying to Jolly Fisherman Seaplane Base? Find the distance to fly.

From to M49

Sunrise and sunset
Times for 21-Jan-2019
 Local
(UTC-6)
 Zulu
(UTC)
Morning civil twilight07:2713:27
Sunrise08:0014:00
Sunset17:0723:07
Evening civil twilight17:4023:40

Current date and time
Zulu (UTC)  21-Jan-2019 19:20:39
Local (UTC-6)  21-Jan-2019 13:20:39
 
METAR
K3N8 
18nm NW 
211855Z AUTO 15014G19KT 3/4SM -SN OVC017 M13/M16 A3005 RMK AO2 T11301158
KPKD 
24nm SE 
211853Z AUTO 16015G25KT 1 1/4SM -SN BKN022 OVC031 M14/M17 A3010 RMK AO2 SLP238 P0000 T11441172 $
KDTL 
24nm SW 
211855Z AUTO 15014KT 1 1/2SM -SN OVC007 M13/M16 A3006 RMK AO2
KFSE 
28nm N 
211855Z AUTO 15011G16KT 3SM -SN SCT008 M13/M17 A3007 RMK AO2
KBJI 
33nm NE 
211856Z AUTO 15013KT 1 1/4SM -SN OVC015 M13/M17 A3010 RMK AO2 T11351167
TAF
KBJI 
33nm NE 
211736Z 2118/2218 15013KT 4SM BR SCT035 BKN050 FM212000 14012KT 1SM -SN OVC025 FM220000 14009KT 2SM -SN OVC025 FM220200 14008KT 3SM -SN OVC025 FM220600 14005KT 1 1/2SM -SN OVC015 FM221500 VRB03KT P6SM OVC010
NOTAMs
Click for the latest NOTAMs
NOTAMs are issued by the DoD/FAA and will open in a separate window not controlled by AirNav.

 

 
 

Would you like to see your business listed on this page?

 If your business provides an interesting product or service to pilots, flight crews, aircraft, or users of the Jolly Fisherman Seaplane Base, you should consider listing it here.  To start the listing process, click on the button below
 
Add a business
 

Other Pages about Jolly Fisherman Seaplane Base

Update a link
 
Copyright © AirNav, LLC. All rights reserved. Privacy Policy  Contact